Location: Splawn
(30.9202°N, 96.9858°W)
Time: 20:19:00
(UTC+00:00)

Vanguard 3 - Visible Passes

Search period start: 16 February 2020 00:00
Search period end: 26 February 2020 00:00
Orbit: 508 x 3263 km, 33.3° (Epoch: 16 February)

Date Brightness Start Highest point End Pass type
(mag) Time Alt. Az. Time Alt. Az. Time Alt. Az.
16 Feb 11.1 00:42:45 10° W 00:59:03 43° SW 01:16:34 10° SSE visible
16 Feb 11.6 03:06:01 10° WSW 03:13:57 14° SW 03:21:36 10° SSW visible
17 Feb 11.4 01:44:11 10° W 01:58:00 25° SW 02:11:58 10° S visible
18 Feb 11.3 00:26:29 10° W 00:41:39 38° SW 00:58:50 10° SSE visible
18 Feb 11.8 02:52:58 10° WSW 02:56:49 11° SW 03:00:40 10° SW visible
19 Feb 11.6 01:28:26 10° W 01:40:43 22° SW 01:53:37 10° S visible
20 Feb 11.5 00:10:27 10° W 00:24:22 33° SW 00:40:49 10° SSE visible
21 Feb 11.7 01:13:13 10° WSW 01:23:34 18° SW 01:34:42 10° S visible
23 Feb 11.9 00:58:52 10° WSW 01:06:35 14° SW 01:14:55 10° SSW visible
25 Feb 12.0 00:47:22 10° SW 00:49:46 10° SW 00:52:14 10° SSW visible
